Meteo pe oră la Abertillery

Astăzi, 3 August, Marţi

Timp Temperatura Precipitaţii Vânt Presiune Umiditate
00:00 +10°C° 0 mm 2 m/s 740 mmHg 90%
01:00 +9°C° 0 mm 2 m/s 740 mmHg 91%
02:00 +9°C° 0 mm 2 m/s 739 mmHg 91%
03:00 +10°C° 0 mm 1 m/s 739 mmHg 92%
04:00 +10°C° 0 mm 1 m/s 739 mmHg 92%
05:00 +11°C° 0 mm 1 m/s 739 mmHg 91%
06:00 +11°C° 0 mm 1 m/s 739 mmHg 90%
07:00 +13°C° 0 mm 1 m/s 739 mmHg 86%
08:00 +14°C° 0 mm 1 m/s 739 mmHg 81%
09:00 +16°C° 0 mm 1 m/s 740 mmHg 76%
10:00 +18°C° 0.1 mm 1 m/s 739 mmHg 72%
11:00 +19°C° 0.1 mm 1 m/s 739 mmHg 69%
12:00 +19°C° 0.1 mm 1 m/s 739 mmHg 65%
13:00 +18°C° 0.3 mm 2 m/s 739 mmHg 65%
14:00 +18°C° 0.3 mm 2 m/s 739 mmHg 65%
15:00 +18°C° 0.3 mm 2 m/s 738 mmHg 64%
16:00 +18°C° 0.1 mm 2 m/s 738 mmHg 66%
17:00 +18°C° 0.1 mm 2 m/s 738 mmHg 68%
18:00 +19°C° 0.1 mm 1 m/s 738 mmHg 70%
19:00 +16°C° 0 mm 1 m/s 738 mmHg 74%
20:00 +15°C° 0 mm 1 m/s 739 mmHg 77%
21:00 +13°C° 0 mm 1 m/s 739 mmHg 80%
22:00 +13°C° 0 mm 1 m/s 739 mmHg 82%
23:00 +12°C° 0 mm 1 m/s 739 mmHg 83%

Mâine, 4 August, Miercuri

Timp Temperatura Precipitaţii Vânt Presiune Umiditate
00:00 +12°C° 0 mm 1 m/s 739 mmHg 85%
01:00 +12°C° 0 mm 1 m/s 739 mmHg 86%
02:00 +12°C° 0 mm 1 m/s 739 mmHg 86%
03:00 +12°C° 0 mm 1 m/s 738 mmHg 87%
04:00 +12°C° 0 mm 1 m/s 739 mmHg 87%
05:00 +12°C° 0 mm 1 m/s 739 mmHg 87%
06:00 +13°C° 0 mm 1 m/s 739 mmHg 86%
07:00 +14°C° 0 mm 1 m/s 739 mmHg 81%
08:00 +15°C° 0 mm 0 m/s 739 mmHg 76%
09:00 +16°C° 0 mm 0 m/s 739 mmHg 71%
10:00 +19°C° 0.1 mm 1 m/s 739 mmHg 68%
11:00 +19°C° 0.1 mm 2 m/s 739 mmHg 64%
12:00 +20°C° 0.1 mm 2 m/s 739 mmHg 60%
13:00 +20°C° 0.1 mm 3 m/s 739 mmHg 60%
14:00 +20°C° 0.1 mm 3 m/s 739 mmHg 60%
15:00 +20°C° 0.1 mm 4 m/s 739 mmHg 61%
16:00 +19°C° 0 mm 4 m/s 739 mmHg 64%
17:00 +18°C° 0 mm 4 m/s 739 mmHg 68%
18:00 +18°C° 0 mm 4 m/s 739 mmHg 72%
19:00 +16°C° 0 mm 3 m/s 738 mmHg 78%
20:00 +15°C° 0 mm 2 m/s 738 mmHg 83%
21:00 +13°C° 0 mm 2 m/s 738 mmHg 88%
22:00 +13°C° 0 mm 2 m/s 738 mmHg 89%
23:00 +13°C° 0 mm 2 m/s 738 mmHg 89%

Poimâine, 5 August, Joi

Timp Temperatura Precipitaţii Vânt Presiune Umiditate
00:00 +13°C° 0 mm 2 m/s 738 mmHg 89%
01:00 +12°C° 0 mm 2 m/s 737 mmHg 91%
02:00 +12°C° 0 mm 2 m/s 737 mmHg 93%
03:00 +12°C° 0 mm 2 m/s 736 mmHg 94%
04:00 +12°C° 0 mm 2 m/s 736 mmHg 94%
05:00 +12°C° 0 mm 2 m/s 735 mmHg 95%
06:00 +12°C° 0 mm 3 m/s 735 mmHg 95%
07:00 +13°C° 0.1 mm 4 m/s 734 mmHg 93%
08:00 +14°C° 0.1 mm 5 m/s 734 mmHg 91%
09:00 +15°C° 0.1 mm 6 m/s 733 mmHg 89%
10:00 +15°C° 0.2 mm 7 m/s 733 mmHg 88%
11:00 +15°C° 0.2 mm 7 m/s 732 mmHg 87%
12:00 +15°C° 0.2 mm 8 m/s 732 mmHg 86%
13:00 +15°C° 0.4 mm 7 m/s 731 mmHg 89%
14:00 +15°C° 0.4 mm 7 m/s 731 mmHg 92%
15:00 +14°C° 0.4 mm 6 m/s 730 mmHg 95%
16:00 +15°C° 0.5 mm 5 m/s 729 mmHg 94%
17:00 +15°C° 0.5 mm 5 m/s 729 mmHg 92%
18:00 +15°C° 0.5 mm 4 m/s 729 mmHg 91%
19:00 +15°C° 0.3 mm 4 m/s 728 mmHg 92%
20:00 +14°C° 0.3 mm 4 m/s 728 mmHg 94%
21:00 +13°C° 0.3 mm 4 m/s 728 mmHg 95%
22:00 +14°C° 0.2 mm 4 m/s 728 mmHg 95%
23:00 +14°C° 0.2 mm 5 m/s 728 mmHg 95%

6 August, Vineri

Timp Temperatura Precipitaţii Vânt Presiune Umiditate
00:00 +14°C° 0.2 mm 5 m/s 728 mmHg 95%
01:00 +14°C° 0.2 mm 6 m/s 728 mmHg 95%
02:00 +14°C° 0.2 mm 6 m/s 728 mmHg 95%
03:00 +14°C° 0.2 mm 7 m/s 727 mmHg 95%
04:00 +14°C° 0.1 mm 7 m/s 728 mmHg 94%
05:00 +14°C° 0.1 mm 7 m/s 728 mmHg 94%
06:00 +13°C° 0.1 mm 8 m/s 728 mmHg 93%
07:00 +13°C° 0.1 mm 8 m/s 729 mmHg 90%
08:00 +15°C° 0.1 mm 8 m/s 729 mmHg 87%
09:00 +15°C° 0.1 mm 8 m/s 729 mmHg 84%
10:00 +15°C° 0.1 mm 8 m/s 730 mmHg 81%
11:00 +15°C° 0.1 mm 8 m/s 730 mmHg 78%
12:00 +16°C° 0.1 mm 8 m/s 730 mmHg 76%
13:00 +16°C° 0.1 mm 8 m/s 731 mmHg 74%
14:00 +16°C° 0.1 mm 8 m/s 731 mmHg 72%
15:00 +17°C° 0.1 mm 8 m/s 731 mmHg 70%
16:00 +16°C° 0.2 mm 7 m/s 731 mmHg 75%
17:00 +15°C° 0.2 mm 6 m/s 730 mmHg 81%
18:00 +15°C° 0.2 mm 6 m/s 730 mmHg 86%
19:00 +14°C° 0.1 mm 5 m/s 730 mmHg 89%
20:00 +13°C° 0.1 mm 4 m/s 730 mmHg 92%
21:00 +12°C° 0.1 mm 3 m/s 730 mmHg 94%
22:00 +12°C° 0.2 mm 3 m/s 730 mmHg 95%
23:00 +12°C° 0.2 mm 4 m/s 730 mmHg 95%

7 August, Sâmbătă

Timp Temperatura Precipitaţii Vânt Presiune Umiditate
00:00 +12°C° 0.2 mm 4 m/s 729 mmHg 95%
01:00 +12°C° 0.3 mm 4 m/s 729 mmHg 95%
02:00 +12°C° 0.3 mm 3 m/s 728 mmHg 96%
03:00 +12°C° 0.3 mm 3 m/s 728 mmHg 96%
04:00 +12°C° 0.3 mm 3 m/s 728 mmHg 96%
05:00 +13°C° 0.3 mm 2 m/s 728 mmHg 96%
06:00 +13°C° 0.3 mm 2 m/s 728 mmHg 96%
07:00 +14°C° 0.1 mm 2 m/s 728 mmHg 92%
08:00 +13°C° 0.1 mm 3 m/s 728 mmHg 88%
09:00 +14°C° 0.1 mm 3 m/s 728 mmHg 85%
10:00 +15°C° 0.2 mm 4 m/s 729 mmHg 81%
11:00 +15°C° 0.2 mm 5 m/s 729 mmHg 78%
12:00 +16°C° 0.2 mm 5 m/s 729 mmHg 75%
13:00 +16°C° 0.3 mm 6 m/s 730 mmHg 77%
14:00 +16°C° 0.3 mm 6 m/s 730 mmHg 78%
15:00 +16°C° 0.3 mm 7 m/s 730 mmHg 80%
16:00 +15°C° 0.3 mm 7 m/s 731 mmHg 83%
17:00 +15°C° 0.3 mm 7 m/s 731 mmHg 86%
18:00 +14°C° 0.3 mm 6 m/s 731 mmHg 88%
19:00 +14°C° 0 mm 6 m/s 732 mmHg 89%
20:00 +13°C° 0 mm 5 m/s 732 mmHg 89%
21:00 +13°C° 0 mm 5 m/s 732 mmHg 90%
22:00 +13°C° 0 mm 5 m/s 733 mmHg 91%
23:00 +13°C° 0 mm 5 m/s 733 mmHg 92%

8 August, Duminică

Timp Temperatura Precipitaţii Vânt Presiune Umiditate
00:00 +12°C° 0 mm 5 m/s 734 mmHg 93%
01:00 +13°C° 0 mm 5 m/s 734 mmHg 93%
02:00 +13°C° 0 mm 5 m/s 734 mmHg 93%
03:00 +13°C° 0 mm 5 m/s 734 mmHg 93%
04:00 +13°C° 0 mm 5 m/s 735 mmHg 92%
05:00 +13°C° 0 mm 5 m/s 735 mmHg 92%
06:00 +13°C° 0 mm 5 m/s 735 mmHg 92%
07:00 +13°C° 0.1 mm 5 m/s 736 mmHg 90%
08:00 +14°C° 0.1 mm 5 m/s 737 mmHg 87%
09:00 +14°C° 0.1 mm 6 m/s 737 mmHg 85%
10:00 +15°C° 0.2 mm 6 m/s 738 mmHg 83%
11:00 +15°C° 0.2 mm 6 m/s 738 mmHg 81%
12:00 +16°C° 0.2 mm 7 m/s 738 mmHg 79%
13:00 +16°C° 0.2 mm 7 m/s 739 mmHg 76%
14:00 +17°C° 0.2 mm 7 m/s 739 mmHg 74%
15:00 +17°C° 0.2 mm 7 m/s 740 mmHg 71%
16:00 +16°C° 0 mm 7 m/s 740 mmHg 73%
17:00 +15°C° 0 mm 6 m/s 740 mmHg 74%
18:00 +15°C° 0 mm 6 m/s 740 mmHg 76%
19:00 +14°C° 0 mm 6 m/s 741 mmHg 81%
20:00 +14°C° 0 mm 5 m/s 741 mmHg 86%
21:00 +13°C° 0 mm 5 m/s 741 mmHg 91%
22:00 +14°C° 0 mm 5 m/s 742 mmHg 91%
23:00 +14°C° 0 mm 5 m/s 742 mmHg 91%
Arată mai mult

Formular de consimțământ

Meteoprog și furnizorii noștri de servicii pot stoca și accesa date personale, precum cookies, identificatori de dispozitiv sau alte tehnologii similare pe dispozitivul dumneavoastră și procesa astfel de date pentru a personaliza conținutul și reclamele, dar și pentru a oferi caracteristici de social media și pentru a analiza traficul.

  • Stocarea și/sau accesarea informațiilor pe dispozitivul dumneavoastră

    Cookies, identificatori de dispozitiv sau alte informații pot fi stocate sau accesate pe dispozitiv în scopurile indicate mai sus.

  • Reclame și conținut personalizat, evaluarea reclamelor și a conținutului, informații despre audiențe și dezvoltarea produselor

    Reclamele și conținutul pot fi personalizate pe baza unui profil. Pot fi adăugate date suplimentare pentru a personaliza mai bine reclamele și conținutul. Performanța reclamelor și conținutului poate fi măsurată. Pot fi obținute informații despre utilizatorii care au văzut reclamele și conținutul. Aceste date pot fi utilizate pentru a dezvolta sau îmbunătăți experiența utilizatorilor, sistemele și software-ul.

Dând clic pe ‘Sunt de acord’, permiteți utilizarea cookie-urilor menționate, a identificatorilor de dispozitiv, balizelor web sau altor tehnologii similare. Setările pot fi modificate din browser-ul dispozitivului dumneavoastră.

În anumite scopuri, interesele legitime pot prima asupra consimțământului. Puteți citi mai multe informații în acest sens în Politica privind Confidențialitatea Datelor și Cookie.